Location: Oak Harbor
(48.2930°N, 122.6420°W)
Time: 01:08:22
(UTC-07:00)

ACS3 Solar Sail - Pass Details

Date: 28 May 2026
Orbit: 877 x 953 km, 97.2° (Epoch: 8 June)

Event Time Altitude Azimuth Distance (km) Brightness Sun altitude
Rises 01:09:58 0° 18° (NNE) 3,485 6.0 -20.2°
Reaches altitude 10° 01:12:32 10° 26° (NNE) 2,543 4.9 -20.2°
Maximum altitude 01:17:49 39° 95° (E) 1,293 2.4 -20.2°
Enters shadow 01:20:08 28° 141° (SE) 1,612 2.5 -20.2°
